Mobridge, SD

4:28 PM CST on February 07, 2016 (GMT -0600)
Mobridge Municipal

Weather History for KMBG - February, 2014

Change the Weather History Date:

Friday, February 14, 2014

  Actual Average Record
Temperature  
Mean Temperature 11 °F 20 °F  
Max Temperature 19 °F 31 °F 66 °F (1954)
Min Temperature 2 °F 10 °F -34 °F (1936)
Degree Days  
Heating Degree Days 54 45  
Month to date heating degree days 834 648  
Since 1 July heating degree days 5853 5381  
Cooling Degree Days 0 0  
Month to date cooling degree days 0 0  
Year to date cooling degree days 0 0  
Moisture  
Dew Point 4 °F    
Average Humidity 75    
Maximum Humidity 88    
Minimum Humidity 61    
Precipitation  
Precipitation T in 0.02 in 1.20 in (1918)
Month to date precipitation 0.23 0.20  
Year to date precipitation 0.41 0.49  
Snow  
Snow T in - - ()
Month to date snowfall 6.3  
Since 1 July snowfall 27.8  
Snow Depth 6.00 in    
Sea Level Pressure  
Sea Level Pressure 29.98 in    
Wind  
Wind Speed 8 mph (East)    
Max Wind Speed 20 mph    
Max Gust Speed 21 mph    
Visibility 10 miles    
Events Snow    
T = Trace of Precipitation, MM = Missing Value Source: NWS Daily Summary

Daily Weather History Graph

Daily Weather History Graph

Search for Another Location

Airport or City:

Trip Planner

Search our weather history database for the weather conditions in past years. The results will help you decide how hot, cold, wet, or windy it might be!

Date:

Astronomy

Feb. 14, 2014 Rise Set
Actual Time 7:44 AM CST 6:07 PM CST
Civil Twilight 7:14 AM CST 6:37 PM CST
Nautical Twilight 6:39 AM CST 7:12 PM CST
Astronomical Twilight 6:05 AM CST 7:47 PM CST
Moon 6:15 PM CST (2/14) 7:11 AM CST (2/14)
Length of Visible Light 11h 23m
Length of Day
10h 22m
Full, 100% of the Moon is Illuminated
Feb 14
Full
Feb 14
Full
Feb 22
Last Quarter
Mar 1
New
Mar 8
First Quarter

Hourly Weather History & Observations

Time (CST) Temp. Windchill Dew Point Humidity Pressure Visibility Wind Dir Wind Speed Gust Speed Precip Events Conditions
12:10 AM 9.0 °F -3.2 °F 3.9 °F 80% 29.75 in 3.0 mi ENE 8.1 mph - 0.00 in Snow Light Snow
12:52 AM 9.0 °F -3.2 °F 3.9 °F 80% 29.88 in 10.0 mi NNE 8.1 mph - 0.00 in   Overcast
1:52 AM 9.0 °F -4.2 °F 3.0 °F 77% 29.88 in 10.0 mi NNE 9.2 mph - 0.00 in   Overcast
2:52 AM 9.0 °F -4.2 °F 3.9 °F 80% 29.90 in 10.0 mi NNE 9.2 mph - 0.00 in   Overcast
3:52 AM 8.1 °F -2.0 °F 3.0 °F 80% 29.93 in 10.0 mi NE 5.8 mph - N/A   Overcast
4:52 AM 7.0 °F -3.3 °F 3.0 °F 84% 29.97 in 10.0 mi North 5.8 mph - N/A   Overcast
5:52 AM 8.1 °F -5.3 °F 1.9 °F 76% 30.00 in 10.0 mi NNE 9.2 mph - N/A   Overcast
6:52 AM 8.1 °F -3.2 °F 1.9 °F 76% 30.04 in 10.0 mi North 6.9 mph - N/A   Overcast
7:52 AM 6.1 °F -2.8 °F 1.0 °F 80% 30.07 in 10.0 mi North 4.6 mph - N/A   Overcast
8:52 AM 3.0 °F -6.4 °F -2.0 °F 80% 30.11 in 10.0 mi NNW 4.6 mph - N/A   Partly Cloudy
9:52 AM 7.0 °F 0.1 °F -0.9 °F 70% 30.13 in 9.0 mi NW 3.5 mph - 0.00 in Snow Light Snow
10:52 AM 10.0 °F 1.8 °F 1.0 °F 67% 30.12 in 10.0 mi North 4.6 mph - 0.00 in   Clear
11:52 AM 12.9 °F - 1.9 °F 62% 30.13 in 10.0 mi Calm Calm - N/A   Clear
12:52 PM 12.0 °F 5.9 °F 1.0 °F 61% 30.12 in 10.0 mi SE 3.5 mph - N/A   Clear
1:52 PM 12.9 °F 5.2 °F 3.0 °F 65% 30.08 in 10.0 mi ESE 4.6 mph - N/A   Clear
2:52 PM 12.9 °F 1.6 °F 3.9 °F 67% 30.05 in 10.0 mi South 8.1 mph - N/A   Clear
3:52 PM 14.0 °F 1.2 °F 6.1 °F 71% 30.05 in 10.0 mi SSE 10.4 mph - N/A   Clear
4:52 PM 14.0 °F 0.5 °F 6.1 °F 71% 30.02 in 10.0 mi SSE 11.5 mph - N/A   Clear
5:52 PM 10.0 °F -4.5 °F 3.9 °F 76% 29.98 in 10.0 mi SE 11.5 mph - N/A   Clear
6:52 PM 9.0 °F -5.1 °F 3.0 °F 77% 29.96 in 10.0 mi SSE 10.4 mph - N/A   Clear
7:52 PM 10.0 °F -5.2 °F 5.0 °F 80% 29.95 in 10.0 mi SSE 12.7 mph - N/A   Clear
8:52 PM 10.9 °F -4.1 °F 6.1 °F 81% 29.90 in 10.0 mi SE 12.7 mph - N/A   Clear
9:52 PM 14.0 °F 1.2 °F 9.0 °F 80% 29.86 in 10.0 mi SE 10.4 mph - N/A   Clear
10:52 PM 17.1 °F 3.6 °F 12.0 °F 81% 29.82 in 10.0 mi SE 12.7 mph - N/A   Clear
11:52 PM 19.0 °F 4.0 °F 12.9 °F 77% 29.76 in 10.0 mi SSE 17.3 mph - N/A   Scattered Clouds